Location: Unspecified
(35.6961°N, 0.0000°E)
Time: 02:30:23
(UTC+00:00)

S-56A Canister/Altair - Pass Details

Date: 10 October 2020
Orbit: 632 x 2500 km, 38.9° (Epoch: 20 October)

Event Time Altitude Azimuth Distance (km) Brightness Sun altitude
Rises 19:05:43 0° 286° (WNW) 6,127 13.7 -20.1°
Reaches altitude 10° 19:11:44 10° 270° (W) 4,950 12.8 -21.3°
Maximum altitude 19:19:38 18° 235° (SW) 3,963 11.7 -22.9°
Drops below altitude 10° 19:26:25 10° 198° (SSW) 4,128 11.3 -24.3°
Sets 19:30:49 0° 180° (S) 4,770 11.5 -25.1°
